When you browse on this site, cookies collect data to enhance your experience and personalize the content and advertising you see.
Visit our Privacy Policy to learn more. By continuing to use the site, you agree to this use of cookies and data.
  • In Lithuania
  • List of Countries
  • For 7 days
  • Water Temperature
  • Satellite Maps
  • Weather Map
  • Weather Widgets
  • user-avatar
    Login

    Hourly Weather Kamarang

    Today, 20 April, Saturday

    Time Temperature Precipitation Wind Pressure Humidity
    00:00 +20°C° 0.1 mm 0 mps 713 mmHg 96%
    01:00 +20°C° 0.1 mm 0 mps 713 mmHg 97%
    02:00 +20°C° 0 mm 0 mps 713 mmHg 98%
    03:00 +20°C° 0 mm 0 mps 713 mmHg 98%
    04:00 +20°C° 0 mm 0 mps 713 mmHg 98%
    05:00 +20°C° 0 mm 0 mps 713 mmHg 98%
    06:00 +21°C° 0 mm 0 mps 714 mmHg 92%
    07:00 +22°C° 0 mm 0 mps 714 mmHg 86%
    08:00 +23°C° 0 mm 0 mps 715 mmHg 79%
    09:00 +27°C° 0 mm 1 mps 715 mmHg 66%
    10:00 +30°C° 0 mm 1 mps 715 mmHg 54%
    11:00 +32°C° 0 mm 1 mps 715 mmHg 42%
    12:00 +34°C° 0 mm 2 mps 714 mmHg 40%
    13:00 +35°C° 0 mm 2 mps 714 mmHg 38%
    14:00 +36°C° 0 mm 2 mps 713 mmHg 36%
    15:00 +35°C° 0 mm 2 mps 712 mmHg 40%
    16:00 +34°C° 0 mm 2 mps 712 mmHg 43%
    17:00 +32°C° 0 mm 2 mps 711 mmHg 47%
    18:00 +30°C° 0 mm 2 mps 712 mmHg 56%
    19:00 +28°C° 0 mm 1 mps 712 mmHg 65%
    20:00 +25°C° 0 mm 1 mps 713 mmHg 73%
    21:00 +25°C° 0 mm 1 mps 713 mmHg 77%
    22:00 +24°C° 0 mm 1 mps 713 mmHg 81%
    23:00 +24°C° 0 mm 1 mps 714 mmHg 84%

    Tomorrow, 21 April, Sunday

    Time Temperature Precipitation Wind Pressure Humidity
    00:00 +23°C° 0 mm 1 mps 713 mmHg 87%
    01:00 +21°C° 0 mm 0 mps 713 mmHg 90%
    02:00 +20°C° 0 mm 0 mps 713 mmHg 94%
    03:00 +20°C° 0 mm 0 mps 713 mmHg 95%
    04:00 +20°C° 0 mm 0 mps 713 mmHg 96%
    05:00 +20°C° 0 mm 0 mps 713 mmHg 97%
    06:00 +21°C° 0 mm 0 mps 713 mmHg 89%
    07:00 +22°C° 0 mm 0 mps 714 mmHg 81%
    08:00 +24°C° 0 mm 0 mps 714 mmHg 74%
    09:00 +27°C° 0 mm 1 mps 714 mmHg 66%
    10:00 +29°C° 0 mm 1 mps 714 mmHg 59%
    11:00 +30°C° 0 mm 1 mps 714 mmHg 51%
    12:00 +32°C° 0 mm 1 mps 713 mmHg 46%
    13:00 +34°C° 0 mm 2 mps 713 mmHg 41%
    14:00 +36°C° 0 mm 2 mps 712 mmHg 36%
    15:00 +34°C° 0.1 mm 2 mps 711 mmHg 43%
    16:00 +32°C° 0.1 mm 2 mps 711 mmHg 51%
    17:00 +30°C° 0.1 mm 3 mps 710 mmHg 58%
    18:00 +28°C° 0.2 mm 2 mps 711 mmHg 70%
    19:00 +26°C° 0.2 mm 1 mps 711 mmHg 81%
    20:00 +21°C° 0.2 mm 0 mps 712 mmHg 93%
    21:00 +21°C° 0 mm 0 mps 712 mmHg 94%
    22:00 +21°C° 0 mm 0 mps 713 mmHg 95%
    23:00 +20°C° 0 mm 0 mps 713 mmHg 97%

    Day after tomorrow, 22 April, Monday

    Time Temperature Precipitation Wind Pressure Humidity
    00:00 +21°C° 0 mm 0 mps 713 mmHg 96%
    01:00 +21°C° 0 mm 0 mps 712 mmHg 96%
    02:00 +21°C° 0 mm 0 mps 712 mmHg 95%
    03:00 +21°C° 0.1 mm 0 mps 712 mmHg 96%
    04:00 +21°C° 0.1 mm 0 mps 712 mmHg 96%
    05:00 +21°C° 0.1 mm 0 mps 712 mmHg 97%
    06:00 +21°C° 0.1 mm 0 mps 712 mmHg 93%
    07:00 +22°C° 0.1 mm 0 mps 712 mmHg 90%
    08:00 +22°C° 0.1 mm 0 mps 713 mmHg 87%
    09:00 +26°C° 0 mm 1 mps 713 mmHg 76%
    10:00 +28°C° 0 mm 1 mps 713 mmHg 66%
    11:00 +30°C° 0 mm 1 mps 713 mmHg 55%
    12:00 +31°C° 0 mm 1 mps 712 mmHg 49%
    13:00 +33°C° 0 mm 1 mps 712 mmHg 42%
    14:00 +36°C° 0 mm 2 mps 711 mmHg 35%
    15:00 +35°C° 0 mm 2 mps 710 mmHg 39%
    16:00 +34°C° 0 mm 2 mps 710 mmHg 43%
    17:00 +32°C° 0 mm 2 mps 709 mmHg 47%
    18:00 +30°C° 0 mm 2 mps 710 mmHg 56%
    19:00 +28°C° 0 mm 1 mps 710 mmHg 66%
    20:00 +25°C° 0 mm 1 mps 711 mmHg 75%
    21:00 +25°C° 0 mm 1 mps 711 mmHg 79%
    22:00 +22°C° 0 mm 0 mps 712 mmHg 82%
    23:00 +21°C° 0 mm 0 mps 712 mmHg 86%

    23 April, Tuesday

    Time Temperature Precipitation Wind Pressure Humidity
    00:00 +21°C° 0 mm 0 mps 712 mmHg 89%
    01:00 +21°C° 0 mm 0 mps 711 mmHg 92%
    02:00 +20°C° 0 mm 0 mps 711 mmHg 95%
    03:00 +20°C° 0 mm 0 mps 711 mmHg 95%
    04:00 +20°C° 0 mm 0 mps 711 mmHg 96%
    05:00 +20°C° 0 mm 0 mps 711 mmHg 96%
    06:00 +21°C° 0 mm 0 mps 712 mmHg 89%
    07:00 +22°C° 0 mm 0 mps 712 mmHg 82%
    08:00 +26°C° 0 mm 1 mps 713 mmHg 75%
    09:00 +28°C° 0 mm 1 mps 713 mmHg 66%
    10:00 +30°C° 0 mm 1 mps 713 mmHg 57%
    11:00 +32°C° 0 mm 1 mps 714 mmHg 48%
    12:00 +32°C° 0 mm 1 mps 712 mmHg 46%
    13:00 +33°C° 0 mm 1 mps 711 mmHg 43%
    14:00 +34°C° 0 mm 1 mps 710 mmHg 41%
    15:00 +33°C° 0 mm 1 mps 710 mmHg 43%
    16:00 +32°C° 0 mm 1 mps 710 mmHg 46%
    17:00 +31°C° 0 mm 2 mps 710 mmHg 48%
    18:00 +29°C° 0 mm 1 mps 710 mmHg 55%
    19:00 +27°C° 0 mm 1 mps 711 mmHg 62%
    20:00 +25°C° 0 mm 1 mps 711 mmHg 70%
    21:00 +23°C° 0.2 mm 0 mps 712 mmHg 76%
    22:00 +22°C° 0.2 mm 0 mps 712 mmHg 82%
    23:00 +21°C° 0.2 mm 0 mps 712 mmHg 89%

    24 April, Wednesday

    Time Temperature Precipitation Wind Pressure Humidity
    00:00 +21°C° 0 mm 0 mps 712 mmHg 91%
    01:00 +21°C° 0 mm 0 mps 711 mmHg 93%
    02:00 +21°C° 0 mm 0 mps 711 mmHg 95%
    03:00 +21°C° 0 mm 0 mps 711 mmHg 95%
    04:00 +21°C° 0 mm 0 mps 711 mmHg 94%
    05:00 +21°C° 0 mm 0 mps 711 mmHg 94%
    06:00 +22°C° 0.1 mm 0 mps 712 mmHg 90%
    07:00 +23°C° 0.1 mm 0 mps 713 mmHg 87%
    08:00 +23°C° 0.1 mm 0 mps 714 mmHg 84%
    09:00 +25°C° 0.3 mm 0 mps 714 mmHg 76%
    10:00 +28°C° 0.3 mm 1 mps 714 mmHg 69%
    11:00 +30°C° 0.3 mm 1 mps 714 mmHg 62%
    12:00 +30°C° 0.6 mm 1 mps 713 mmHg 64%
    13:00 +30°C° 0.6 mm 1 mps 712 mmHg 65%
    14:00 +31°C° 0.6 mm 2 mps 711 mmHg 67%
    15:00 +29°C° 1.9 mm 2 mps 711 mmHg 76%
    16:00 +27°C° 1.9 mm 1 mps 711 mmHg 85%
    17:00 +25°C° 1.9 mm 1 mps 711 mmHg 94%
    18:00 +25°C° 0.6 mm 1 mps 712 mmHg 95%
    19:00 +22°C° 0.6 mm 0 mps 712 mmHg 96%
    20:00 +22°C° 0.6 mm 0 mps 713 mmHg 97%
    21:00 +21°C° 0 mm 0 mps 713 mmHg 97%
    22:00 +21°C° 0 mm 0 mps 713 mmHg 98%
    23:00 +21°C° 0 mm 0 mps 713 mmHg 98%

    25 April, Thursday

    Time Temperature Precipitation Wind Pressure Humidity
    00:00 +21°C° 0 mm 0 mps 713 mmHg 98%
    01:00 +20°C° 0 mm 0 mps 712 mmHg 98%
    02:00 +20°C° 0 mm 0 mps 712 mmHg 99%
    03:00 +20°C° 0.1 mm 0 mps 712 mmHg 99%
    04:00 +20°C° 0.1 mm 0 mps 712 mmHg 99%
    05:00 +20°C° 0.1 mm 0 mps 712 mmHg 99%
    06:00 +20°C° 0.4 mm 0 mps 713 mmHg 98%
    07:00 +21°C° 0.4 mm 0 mps 713 mmHg 97%
    08:00 +21°C° 0.4 mm 0 mps 714 mmHg 95%
    09:00 +24°C° 0.1 mm 0 mps 714 mmHg 82%
    10:00 +26°C° 0.1 mm 0 mps 714 mmHg 69%
    11:00 +31°C° 0.1 mm 1 mps 714 mmHg 56%
    12:00 +31°C° 0.3 mm 1 mps 714 mmHg 56%
    13:00 +31°C° 0.3 mm 1 mps 713 mmHg 56%
    14:00 +32°C° 0.3 mm 2 mps 712 mmHg 56%
    15:00 +30°C° 1.1 mm 1 mps 712 mmHg 68%
    16:00 +28°C° 1.1 mm 1 mps 712 mmHg 80%
    17:00 +26°C° 1.1 mm 1 mps 712 mmHg 92%
    18:00 +25°C° 1 mm 1 mps 712 mmHg 94%
    19:00 +24°C° 1 mm 1 mps 713 mmHg 95%
    20:00 +23°C° 1 mm 1 mps 713 mmHg 97%
    21:00 +23°C° 0.8 mm 1 mps 714 mmHg 97%
    22:00 +21°C° 0.8 mm 0 mps 714 mmHg 97%
    23:00 +21°C° 0.8 mm 0 mps 714 mmHg 98%
    Show more